Mobridge, SD

10:03 AM CST on December 09, 2016 (GMT -0600)
Mobridge Municipal

Weather History for KMBG - April, 2013

Change the Weather History Date:

Tuesday, April 2, 2013

  Actual Average Record
Temperature  
Mean Temperature 33 °F 40 °F  
Max Temperature 48 °F 51 °F 79 °F (1955)
Min Temperature 17 °F 28 °F 2 °F (1975)
Degree Days  
Heating Degree Days 32 26  
Month to date heating degree days 71 52  
Since 1 July heating degree days 7095 7054  
Cooling Degree Days 0 0  
Month to date cooling degree days 0 0  
Year to date cooling degree days 0 0  
Moisture  
Dew Point 19 °F    
Average Humidity 59    
Maximum Humidity 80    
Minimum Humidity 37    
Precipitation  
Precipitation 0.00 in 0.02 in 0.52 in (2010)
Month to date precipitation 0.00 0.05  
Year to date precipitation 1.34 1.68  
Snow  
Snow 0.00 in - - ()
Month to date snowfall 0.0  
Since 1 July snowfall 29.0  
Snow Depth 0.00 in    
Sea Level Pressure  
Sea Level Pressure 30.24 in    
Wind  
Wind Speed 9 mph (ESE)    
Max Wind Speed 21 mph    
Max Gust Speed 25 mph    
Visibility 10 miles    
Events      
T = Trace of Precipitation, MM = Missing Value Source: NWS Daily Summary

Daily Weather History Graph

Daily Weather History Graph

Search for Another Location

Airport or City:

Trip Planner

Search our weather history database for the weather conditions in past years. The results will help you decide how hot, cold, wet, or windy it might be!

Date:

Astronomy

Apr. 02, 2013 Rise Set
Actual Time 7:19 AM CDT 8:11 PM CDT
Civil Twilight 6:49 AM CDT 8:41 PM CDT
Nautical Twilight 6:13 AM CDT 9:17 PM CDT
Astronomical Twilight 5:36 AM CDT 9:55 PM CDT
Moon 2:29 AM CDT (4/2) 12:00 PM CDT (4/2)
Length of Visible Light 13h 52m
Length of Day
12h 52m
Waning Gibbous, 55% of the Moon is Illuminated
Apr 2
Waning Gibbous
Apr 2
Last Quarter
Apr 10
New
Apr 18
First Quarter
Apr 25
Full

Hourly Weather History & Observations

Time (CDT) Temp. Windchill Dew Point Humidity Pressure Visibility Wind Dir Wind Speed Gust Speed Precip Events Conditions
12:52 AM 21.0 °F - 10.0 °F 63% 30.25 in 10.0 mi Calm Calm - N/A   Clear
1:52 AM 21.9 °F 15.7 °F 12.0 °F 66% 30.25 in 10.0 mi ESE 4.6 mph - N/A   Clear
2:52 AM 21.0 °F 13.4 °F 12.9 °F 71% 30.25 in 10.0 mi ESE 5.8 mph - N/A   Clear
3:52 AM 19.9 °F 13.4 °F 14.0 °F 78% 30.23 in 10.0 mi SE 4.6 mph - N/A   Clear
4:52 AM 21.0 °F 13.4 °F 16.0 °F 81% 30.23 in 10.0 mi ESE 5.8 mph - N/A   Clear
5:52 AM 18.0 °F 12.7 °F 12.9 °F 81% 30.23 in 10.0 mi SE 3.5 mph - N/A   Clear
6:52 AM 19.0 °F 11.1 °F 14.0 °F 81% 30.24 in 10.0 mi ESE 5.8 mph - N/A   Clear
7:52 AM 19.0 °F - 14.0 °F 81% 30.26 in 10.0 mi Calm Calm - N/A   Clear
8:52 AM 24.1 °F 19.7 °F 18.0 °F 77% 30.27 in 10.0 mi South 3.5 mph - N/A   Clear
9:52 AM 30.9 °F 27.5 °F 19.9 °F 64% 30.27 in 10.0 mi East 3.5 mph - N/A   Clear
10:52 AM 37.0 °F 31.0 °F 21.0 °F 52% 30.27 in 10.0 mi East 8.1 mph - N/A   Clear
11:52 AM 41.0 °F 35.8 °F 21.0 °F 45% 30.27 in 10.0 mi East 8.1 mph - N/A   Clear
12:52 PM 44.1 °F 39.5 °F 21.0 °F 40% 30.26 in 10.0 mi ENE 8.1 mph - N/A   Clear
1:52 PM 46.0 °F 40.2 °F 23.0 °F 40% 30.25 in 10.0 mi ENE 12.7 mph 17.3 mph N/A   Clear
2:52 PM 46.0 °F 41.0 °F 23.0 °F 40% 30.25 in 10.0 mi East 10.4 mph - N/A   Partly Cloudy
3:52 PM 46.0 °F 41.0 °F 23.0 °F 40% 30.24 in 10.0 mi ESE 10.4 mph - N/A   Clear
4:52 PM 46.9 °F - 21.9 °F 37% 30.23 in 10.0 mi East 11.5 mph - N/A   Clear
5:52 PM 46.0 °F 39.9 °F 23.0 °F 40% 30.22 in 10.0 mi ESE 13.8 mph - N/A   Clear
6:52 PM 44.1 °F 36.5 °F 24.1 °F 45% 30.22 in 10.0 mi ESE 17.3 mph - N/A   Clear
7:52 PM 39.0 °F 30.3 °F 23.0 °F 53% 30.23 in 10.0 mi ESE 16.1 mph - N/A   Clear
8:52 PM 35.1 °F 24.8 °F 23.0 °F 61% 30.22 in 10.0 mi ESE 17.3 mph - N/A   Clear
9:52 PM 30.9 °F 19.1 °F 21.9 °F 69% 30.23 in 10.0 mi ESE 18.4 mph - N/A   Clear
10:52 PM 28.9 °F 18.6 °F 21.9 °F 75% 30.23 in 10.0 mi ESE 12.7 mph - N/A   Clear
11:52 PM 28.0 °F 17.0 °F 21.9 °F 78% 30.22 in 10.0 mi SE 13.8 mph - N/A   Clear